カタログに戻る

LUMELITE 4

運用中通信VLEO
NORAD 56309·PAYLOAD·🇸🇬 Singapore

打ち上げ Apr 22, 2023 から Satish Dhawan Space Centre

Loading…

次のパス (今後24時間)

TLE

古いSource: Space-Track

元期: Sep 6, 2026, 01:17 UTC

1 56309U 23057B   26249.05409616  .00005126  00000-0  17143-3 0  9997
2 56309   9.9907 166.9814 0005677 229.3218 130.6505 15.23415096186401

AllMySatでLUMELITE 4をリアルタイム追跡

Download on the App Store